IRIDIUM 33 DEB, 39781

Orbit data source: Space-Track

IRIDIUM 33 DEB, 39781 is space debris in LEO originally from a launch on Sun, 14 Sep 1997 UTC launched from the Tyuratam Missile And Space Complex (TTMTR). The debris from Iridium 33, an American commercial communications satellite, has been tracked extensively since its accidental collision with the defunct Russian satellite Cosmos 2251 in 2009. This event, occurring at high speed in low Earth orbit (LEO), generated thousands of pieces of space debris, significantly increasing the risk of further collisions. The Iridium 33 debris cloud has impacted space traffic management and orbital debris mitigation strategies, making it a subject of ongoing study in space situational awareness.

Loading next visibility...
Identifier
39781, 1997-051AAN
Orbit
LEO
Country
Flag of USUS
Related business
Manufacturer
Unknown
Mission
Spacecraft
Bus & Motor
Unknown
Mass
Unknown
Launch date (UTC)
1997-09-14 (28 years ago)
Launch vehicle
Unknown
Launch site
Tyuratam Missile And Space Complex (TTMTR)
Object type
Payload
Rocket body
Debris
Shape & HBR
Unknown shape, 0.1 m
Radar Cross Section
Small (<0.1 m²)

Expand to show TLE details & history
Last TLE update: 2 days ago

TLE from 2 days ago
0 IRIDIUM 33 DEB
1 39781U 97051AAN 25312.15537152  .00019256  00000-0  77253-2 0  9991
2 39781  86.3717 272.2098 0185619  20.5448 354.8821 14.19177090 76165
Epoch: 2025-11-08T03:43Z
TLE epoch observation values (Epoch: 2025-11-08T03:43:44.099Z)
Latitude
15.1764°
Longitude
169.66724°
Altitude
697.231 km
Speed
7.578 km/s
True Right ascension
18h 12m 45s
True Declination
15° 05' 20"
Sunlit
Object was in daylight at epoch
Visualization orbit readout
Latitude
Unknown
Longitude
Unknown
Altitude
Unknown
Speed
Unknown
Apparent Right ascension
Unknown
Apparent Declination
Unknown
Sunlit
N/A
Visualization observer readout
Local Sidereal Time
15:35:38
Azimuth
Unknown
Elevation
Unknown
Doppler factor
Unknown
Orbital elements
Apogee altitude
958.828 km
Perigee altitude
691.416 km
Semi-major axis
7,203.259 km
Eccentricity
0.01856
Inclination
86.3717°
RAAN
272.2098°
Arg. of periapsis
20.5448°
True anomaly
354.68787°
Mean anomaly
354.8821°
Eccentric anomaly
354.78544°
Mean motion
3.55017 °/min
Orbital period
101.4 mins
BSTAR
0.0077253

Documentation

Showing up to 5 results
|